Wind_Speed
26 27 29 28 28 28 27 27 24 35 36 36 30 37 38 32 33 27 24 32 32 33
27 31 29 34 32 32 31 32 35 33 33 36 39 37 37 36 44 45 40 28 23 29
24 26 31 33 33 30 31 34 33 32 36 38 39 41 40 34 35 39 41 43 40 28
22 23 24 29 31 34 34 33 36 37 37 39 40 41 39 37 34 38 37 37 39 34
21 18 18 21 25 24 26 30 33 35 36 37 39 39 42 40 36 40 37 37 37 35
19 18 17 19 21 21 22 25 27 25 32 35 37 37 42 41 41 41 44 43 42 41
19 21 23 23 24 24 20 19 20 24 28 31 33 36 40 39 40 39 44 46 46 47
23 22 21 19 21 24 27 25 21 23 26 29 32 37 37 42 40 40 41 47 45 47
22 23 22 23 22 21 23 23 23 26 26 29 33 35 40 39 38 38 40 43 42 46
16 17 20 21 22 23 23 25 24 26 28 29 33 34 37 41 37 37 38 39 39 38
19 18 19 19 20 21 22 23 23 24 26 26 28 32 35 41 34 33 34 38 42 41
17 17 18 18 19 19 16 13 14 15 19 21 26 29 34 37 28 27 30 30 39 46
15 15 16 16 14 14 10 8 4 7 12 18 19 23 33 33 29 28 27 26 34 45
14 14 13 12 10 8 5 1 3 7 11 16 21 23 29 30 29 32 28 27 28 38
Wind_Direction
276 265 262 254 240 231 223 230 243 235 225 222 211 202 197 190 198 223 215 196 190 188
282 269 257 259 248 242 239 226 226 227 226 224 218 214 205 199 196 205 212 212 203 194
305 286 265 258 250 239 231 227 226 222 218 222 218 219 215 209 203 197 199 201 199 196
314 309 295 270 259 252 247 233 221 219 215 212 212 213 210 212 209 198 195 193 189 185
316 317 304 288 275 266 253 246 229 226 214 212 209 211 208 207 203 197 195 189 185 186
308 307 305 296 291 287 280 265 246 222 214 208 212 209 212 210 208 200 198 196 189 185
315 310 305 304 298 294 290 271 255 244 232 217 214 214 212 209 209 203 197 195 192 186
325 318 311 305 299 290 288 285 276 266 254 240 236 224 215 213 213 205 198 191 190 188
328 324 321 320 312 301 292 279 262 263 258 248 236 223 225 215 210 203 194 190 188 186
333 328 328 321 316 313 306 293 273 250 246 238 236 230 225 215 200 192 188 183 176 171
331 324 325 326 319 314 308 299 277 249 237 227 224 230 219 220 193 185 174 177 171 164
328 325 329 332 324 318 313 301 268 241 223 218 221 221 212 198 178 169 170 171 164 166
328 332 330 332 323 318 316 304 275 192 198 202 201 202 198 183 156 141 142 148 153 167
345 331 329 326 321 310 305 306 113 115 129 142 154 151 164 171 151 138 129 131 139 146
Height
706 704 706 707 704 706 708 706 712 719 717 718 723 724 730 731 744 754 761 751 755 761
698 699 697 699 699 698 697 701 705 707 709 713 716 722 724 727 732 734 747 753 754 761
695 692 690 691 690 691 691 691 696 700 703 706 707 711 717 721 726 730 735 739 746 756
690 687 686 683 684 683 687 682 686 690 694 699 702 705 708 714 720 723 729 735 737 751
688 685 682 681 682 678 681 679 679 682 686 691 696 697 701 705 709 713 722 726 731 741
685 683 680 680 676 675 675 675 677 681 681 683 688 690 694 696 701 705 709 717 722 730
684 681 677 673 672 670 670 671 672 674 675 677 681 683 687 690 694 697 700 707 714 721
680 678 675 672 669 667 665 664 664 666 668 670 673 675 678 682 686 688 691 696 705 711
678 675 671 668 665 663 660 658 656 658 660 661 664 665 670 672 676 680 682 687 695 702
676 673 669 666 663 659 655 652 650 649 652 654 656 660 664 667 669 673 677 682 689 696
676 672 669 665 661 657 653 649 645 643 644 646 648 653 656 660 663 669 668 677 682 688
675 671 667 663 661 657 653 648 644 641 641 642 644 648 652 657 661 663 668 676 676 684
674 671 667 664 661 658 655 651 648 645 643 643 644 647 650 655 658 663 669 675 679 683
672 671 668 665 663 660 657 655 652 650 648 648 648 651 653 656 661 664 671 679 684 689